Weather Roundup
Issued by NWS Corpus Christi, TX

Home | Current Version | Previous Version | Text Only | Print | Product List | Glossary On
Versions: 1 2 3 4 5 6 7 8 9 10 11 12 13 14 15 16 17 18 19 20 21 22 23 24 25 26 27 28 29 30 31 32 33 34 35 36 37 38 39 40 41 42 43 44 45 46 47 48 49 50
000
ASUS44 KCRP 201110
HRRCRP

SOUTH TEXAS REGIONAL WEATHER ROUNDUP
NATIONAL WEATHER SERVICE CORPUS CHRISTI TX
600 AM CDT SUN APR 20 2014


TXZ229>244-201200-
...CORPUS CHRISTI AREA OBSERVATIONS...

CITY           SKY/WX    TMP DP  RH WIND       PRES   REMARKS
CORPUS CHRISTI CLOUDY    70  64  81 E12       30.08R
NAS CORPUS CHR CLOUDY    69  66  90 SE15      30.08R
ROCKPORT       CLOUDY    68  65  90 SE9       30.10R
KINGSVILLE NAS CLOUDY    70  67  90 E7        30.07R
ALICE          CLOUDY    69  65  86 SE8       30.07R
FALFURRIAS     CLOUDY    68  64  87 E6        30.06S
$$

...VICTORIA AREA OBSERVATIONS...

CITY           SKY/WX    TMP DP  RH WIND       PRES   REMARKS
VICTORIA       FOG       59  59 100 NE5       30.12R VSB 1/2
BEEVILLE       CLOUDY    67  66  95 E6        30.08F
PLEASANTON     CLOUDY    67  61  83 E9        30.08F
SAN ANTONIO    CLOUDY    66  62  87 SE8       30.10S
$$

...LAREDO AREA OBSERVATIONS...

CITY           SKY/WX    TMP DP  RH WIND       PRES   REMARKS
LAREDO         LGT RAIN  68  68 100 SE9       30.06R
COTULLA        CLOUDY    68  62  81 SE12      30.06R
DEL RIO        LGT RAIN  66  63  90 E7        30.04R FOG
MCALLEN        CLOUDY    69  66  90 SE8       30.04S
HEBBRONVILLE   CLOUDY    66  65  94 E10       30.06S FOG
$$

...OTHER TEXAS OBSERVATIONS...

CITY           SKY/WX    TMP DP  RH WIND       PRES   REMARKS
BROWNSVILLE    CLOUDY    70  68  93 SE8       30.05R
HOUSTON        MOCLDY    62  60  93 CALM      30.14R FOG
COL. STATION   MOCLDY    60  59  96 SE6       30.14S FOG
AUSTIN         CLOUDY    62  60  93 SE3       30.11F FOG
WACO           CLEAR     60  56  86 S7        30.12R
FORT WORTH     CLOUDY    65  55  70 S10       30.08S
WICHITA FALLS  CLOUDY    61  53  75 SE3       30.08R
LUBBOCK        PTCLDY    53  52  96 W5        30.07R
EL PASO        PTCLDY    50  48  93 SE3       30.09S
$$

...MARINE OBSERVATIONS...

STATION/POSITION TIME  SKY/WX   TEMP    WIND        PRES    VSBY  WAVE   SWELL
                                AIR SEA DIR/SP/G                  HT/PER HT/PER
                 (UTC)          (F)     (DEG/KT/KT) (MB)    (MI)  (FT/S) (FT/S)
PORT ARANSAS     1000            68 68  100/ 13/ 14 1018.2F
BUOY 90 E PORT A NOT AVBL
BUOY 45 SE BAFFI 1100            69 67  120/ 14/ 16 1017.9R         4/ 5   2/ 8
BUOY 200 E PT IS NOT AVBL
BUOY 15 E GALVES 1100            66 67   CALM  /  4 1019.5R         1/ 7   2/ 7
$$


USA.gov is the U.S. government's official web portal to all federal, state and local government web resources and services.